FW8535 Weather Reports


time (UTC)temp
F
wind
direction
speed
knots
gust
knots
rain 1hr
in
rain 24hr
in
rain mn
in
humidity
%
barometer
mb
20260506193105 53 260 7.0 11.3 0.00 0.00 0.00 25 1016.5
20260506192555 54 274 5.2 7.8 0.00 0.00 0.00 25 1016.7
20260506192054 53 225 2.6 7.8 0.00 0.00 0.00 25 1016.9
20260506191555 52 309 3.5 7.0 0.00 0.00 0.00 27 1016.9
20260506191053 51 194 0.9 8.7 0.00 0.00 0.00 25 1017.1
20260506190553 52 274 6.1 12.2 0.00 0.00 0.00 25 1017.3
20260506190054 52 279 8.7 13.9 0.00 0.00 0.00 25 1017.3
20260506185551 52 285 7.0 17.4 0.00 0.00 0.00 25 1017.4
20260506185050 53 244 5.2 15.6 0.00 0.00 0.00 25 1017.4
20260506184551 52 276 5.2 15.6 0.00 0.00 0.00 25 1017.7
20260506184049 52 289 6.1 13.0 0.00 0.00 0.00 25 1017.8
20260506183047 51 272 5.2 9.6 0.00 0.00 0.00 24 1018.1
20260506182546 51 247 2.6 7.8 0.00 0.00 0.00 24 1018.1
20260506182047 51 304 2.6 13.9 0.00 0.00 0.00 24 1018.2
20260506181553 51 234 8.7 13.9 0.00 0.00 0.00 24 1018.2
20260506181045 52 232 6.1 9.6 0.00 0.00 0.00 24 1018.4
20260506180545 51 291 4.3 11.3 0.00 0.00 0.00 25 1018.4
20260506180042 50 331 2.6 11.3 0.00 0.00 0.00 25 1018.6
20260506175541 51 323 5.2 11.3 0.00 0.00 0.00 24 1018.6
20260506175044 51 288 7.0 10.4 0.00 0.00 0.00 25 1018.7
20260506174540 50 319 2.6 10.4 0.00 0.00 0.00 25 1018.8
20260506174138 50 312 3.5 10.4 0.00 0.00 0.00 25 1018.8
20260506173041 49 283 3.5 10.4 0.00 0.00 0.00 26 1019.0
20260506172535 49 297 2.6 9.6 0.00 0.00 0.00 25 1019.0
20260506172035 50 270 6.1 11.3 0.00 0.00 0.00 25 1019.2
20260506171536 49 235 7.0 11.3 0.00 0.00 0.00 26 1019.2
20260506171035 49 21 2.6 9.6 0.00 0.00 0.00 25 1019.3
20260506170534 50 304 5.2 11.3 0.00 0.00 0.00 25 1019.5
20260506170038 49 271 5.2 10.4 0.00 0.00 0.00 26 1019.5
20260506165533 49 319 4.3 8.7 0.00 0.00 0.00 27 1019.3
20260506165032 49 348 5.2 9.6 0.00 0.00 0.00 25 1019.5
20260506164545 48 5 2.6 9.6 0.00 0.00 0.00 26 1019.6
20260506164031 49 290 4.3 9.6 0.00 0.00 0.00 25 1019.7
20260506163030 49 321 2.6 8.7 0.00 0.00 0.00 26 1019.8
20260506162528 48 302 4.3 8.7 0.00 0.00 0.00 25 1020.0
20260506162027 48 323 4.3 7.8 0.00 0.00 0.00 25 1020.0
20260506161528 48 346 2.6 10.4 0.00 0.00 0.00 26 1020.1
20260506161026 48 355 3.5 10.4 0.00 0.00 0.00 27 1020.1
20260506160525 47 283 3.5 10.4 0.00 0.00 0.00 27 1020.0
20260506160024 46 246 3.5 10.4 0.00 0.00 0.00 28 1020.2
20260506155522 46 311 2.6 7.0 0.00 0.00 0.00 29 1020.3
20260506155021 46 276 2.6 6.1 0.00 0.00 0.00 34 1020.3
20260506154520 45 241 1.7 6.1 0.00 0.00 0.00 35 1020.4
20260506154019 45 108 1.7 7.0 0.00 0.00 0.00 34 1020.5
20260506153017 44 130 1.7 7.8 0.00 0.00 0.00 36 1020.5
20260506152516 43 136 3.5 7.8 0.00 0.00 0.00 39 1020.5
20260506152014 43 134 1.7 7.8 0.00 0.00 0.00 39 1020.6
20260506151515 42 132 3.5 7.8 0.00 0.00 0.00 41 1020.8
20260506151012 42 127 4.3 7.0 0.00 0.00 0.00 43 1020.8
20260506150511 41 192 1.7 6.1 0.00 0.00 0.00 44 1020.9
20260506150009 40 133 2.6 7.0 0.00 0.00 0.00 45 1020.8
20260506145508 39 135 3.5 7.0 0.00 0.00 0.00 45 1021.0
20260506145008 39 146 3.5 6.1 0.00 0.00 0.00 45 1021.0
20260506144511 38 184 1.7 4.3 0.00 0.00 0.00 48 1021.0
20260506144006 37 163 0.9 5.2 0.00 0.00 0.00 47 1021.1
20260506143011 37 166 2.6 5.2 0.00 0.00 0.00 48 1021.2
20260506142513 36 167 1.7 5.2 0.00 0.00 0.00 49 1021.2
20260506142007 35 171 1.7 4.3 0.00 0.00 0.00 49 1021.3
20260506141521 35 173 3.5 5.2 0.00 0.00 0.00 49 1021.3
20260506141006 34 196 2.6 5.2 0.00 0.00 0.00 50 1021.2
20260506140505 34 219 2.6 4.3 0.00 0.00 0.00 51 1021.3
20260506140003 33 227 1.7 4.3 0.00 0.00 0.00 51 1021.3
20260506135503 32 229 1.7 3.5 0.00 0.00 0.00 51 1021.4
20260506135100 32 230 1.7 3.5 0.00 0.00 0.00 51 1021.3
20260506134559 32 236 1.7 4.3 0.00 0.00 0.00 52 1021.4
20260506134101 31 234 2.6 4.3 0.00 0.00 0.00 52 1021.3
20260506133107 30 235 2.6 4.3 0.00 0.00 0.00 54 1021.3
20260506132552 29 235 1.7 3.5 0.00 0.00 0.00 55 1021.3
20260506132052 29 235 1.7 4.3 0.00 0.00 0.00 55 1021.4
20260506131606 29 236 2.6 4.3 0.00 0.00 0.00 55 1021.3
20260506131051 28 236 1.7 4.3 0.00 0.00 0.00 55 1021.2
20260506130551 28 236 1.7 3.5 0.00 0.00 0.00 55 1021.3
20260506130051 28 236 2.6 3.5 0.00 0.00 0.00 56 1021.2
20260506125550 27 237 1.7 3.5 0.00 0.00 0.00 57 1021.0
20260506125050 27 237 1.7 2.6 0.00 0.00 0.00 57 1021.3
20260506124551 26 237 0.0 2.6 0.00 0.00 0.00 58 1021.2
20260506124050 26 237 1.7 2.6 0.00 0.00 0.00 58 1021.2
20260506123056 25 237 0.0 1.7 0.00 0.00 0.00 60 1021.0
20260506122554 24 237 0.0 1.7 0.00 0.00 0.00 60 1020.9
20260506122052 24 238 0.0 0.0 0.00 0.00 0.00 60 1020.9
20260506121556 24 238 0.0 0.9 0.00 0.00 0.00 59 1020.9
20260506121052 24 238 0.0 1.7 0.00 0.00 0.00 58 1020.9
20260506120550 25 238 0.0 3.5 0.00 0.00 0.00 57 1020.8
20260506120100 26 238 0.0 3.5 0.00 0.00 0.00 55 1020.8
20260506115549 27 242 0.9 6.1 0.00 0.00 0.00 53 1020.6
20260506115048 27 241 1.7 6.1 0.00 0.00 0.00 53 1020.6
20260506114548 27 320 0.9 4.3 0.00 0.00 0.00 53 1020.5
20260506114147 27 325 1.7 4.3 0.00 0.00 0.00 54 1020.4
20260506113043 26 190 0.0 1.7 0.00 0.00 0.00 56 1020.4
20260506112545 26 190 0.0 2.6 0.00 0.00 0.00 56 1020.4
20260506112041 25 190 0.0 1.7 0.00 0.00 0.00 57 1020.4
20260506111546 25 190 0.0 1.7 0.00 0.00 0.00 56 1020.5
20260506111040 25 190 0.9 4.3 0.00 0.00 0.00 56 1020.3
20260506110541 25 190 0.9 5.2 0.00 0.00 0.00 56 1020.3
20260506110043 26 190 2.6 3.5 0.00 0.00 0.00 56 1020.3
20260506105539 26 190 0.9 3.5 0.00 0.00 0.00 56 1020.3
20260506105042 25 190 1.7 3.5 0.00 0.00 0.00 57 1020.2
20260506104548 25 190 0.9 5.2 0.00 0.00 0.00 55 1020.2
20260506104036 26 190 2.6 5.2 0.00 0.00 0.00 55 1020.1
20260506103044 27 247 0.0 2.6 0.00 0.00 0.00 55 1020.2
20260506102536 26 271 0.0 1.7 0.00 0.00 0.00 55 1020.2
20260506102035 27 271 0.0 1.7 0.00 0.00 0.00 55 1020.3
20260506101535 27 271 0.9 2.6 0.00 0.00 0.00 54 1020.3
20260506101034 26 280 0.0 2.6 0.00 0.00 0.00 54 1020.3
20260506100534 26 280 0.0 1.7 0.00 0.00 0.00 55 1020.3
20260506100034 26 280 0.0 1.7 0.00 0.00 0.00 55 1020.3
20260506095534 26 280 0.0 1.7 0.00 0.00 0.00 54 1020.4
20260506095035 26 280 0.0 2.6 0.00 0.00 0.00 54 1020.3
20260506094533 26 280 0.0 2.6 0.00 0.00 0.00 55 1020.2
20260506094032 26 278 0.0 1.7 0.00 0.00 0.00 55 1020.3
20260506093036 26 279 0.0 1.7 0.00 0.00 0.00 55 1020.1
20260506092536 26 279 0.0 2.6 0.00 0.00 0.00 55 1020.1
20260506092036 26 279 0.0 2.6 0.00 0.00 0.00 55 1020.1
20260506091537 26 279 0.0 2.6 0.00 0.00 0.00 55 1020.3
20260506091034 26 279 0.0 2.6 0.00 0.00 0.00 55 1020.2
20260506090533 26 279 0.9 2.6 0.00 0.00 0.00 55 1020.1
20260506090033 26 279 0.0 2.6 0.00 0.00 0.00 55 1020.1
20260506090003 26 279 0.0 2.6 0.00 0.00 0.00 55 1020.2
20260506085532 26 279 0.0 2.6 0.00 0.00 0.00 55 1020.1
20260506085031 27 279 0.0 3.5 0.00 0.00 0.00 55 1020.1
20260506084607 27 279 0.9 3.5 0.00 0.00 0.00 55 1020.0
20260506084030 27 278 0.9 2.6 0.00 0.00 0.00 54 1020.0
20260506083026 27 278 0.9 2.6 0.00 0.00 0.00 54 1020.1
20260506082524 28 278 0.0 1.7 0.00 0.00 0.00 53 1020.1
20260506082024 28 278 0.0 1.7 0.00 0.00 0.00 54 1020.1
20260506081534 28 278 0.0 1.7 0.00 0.00 0.00 53 1020.1
20260506081022 28 278 0.0 1.7 0.00 0.00 0.00 53 1020.1
20260506080522 28 278 0.0 1.7 0.00 0.00 0.00 53 1020.1
20260506073019 29 279 0.0 2.6 0.00 0.00 0.00 54 1020.1
20260506072517 29 279 0.0 0.9 0.00 0.00 0.00 54 1020.0
20260506072017 29 279 0.0 1.7 0.00 0.00 0.00 53 1020.0
20260506071517 30 279 0.0 1.7 0.00 0.00 0.00 53 1020.1
20260506071015 30 279 0.0 2.6 0.00 0.00 0.00 53 1020.1
20260506070515 30 279 0.0 2.6 0.00 0.00 0.00 53 1020.1
20260506062510 30 272 0.0 1.7 0.00 0.00 0.00 56 1019.8
20260506062010 30 272 0.0 1.7 0.00 0.00 0.00 56 1019.8
20260506061510 30 272 0.0 1.7 0.00 0.00 0.00 56 1020.0
20260506061009 30 272 0.0 1.7 0.00 0.00 0.00 56 1019.8
20260506060510 30 272 0.0 2.6 0.00 0.00 0.00 56 1019.9
20260506051006 30 280 0.9 3.5 0.00 0.00 0.00 56 1019.6
20260506050505 30 279 1.7 3.5 0.00 0.00 0.00 55 1019.7
20260506045005 31 277 1.7 3.5 0.00 0.00 0.00 54 1019.5
20260506044504 31 271 1.7 3.5 0.00 0.00 0.00 55 1019.6
20260506044006 31 276 0.9 3.5 0.00 0.00 0.00 55 1019.5
20260506043003 31 298 0.9 1.7 0.00 0.00 0.00 55 1019.5
20260506042504 31 307 0.9 1.7 0.00 0.00 0.00 55 1019.6
20260506042003 31 307 0.9 1.7 0.00 0.00 0.00 55 1019.5
20260506041503 31 307 0.9 2.6 0.00 0.00 0.00 55 1019.7
20260506041002 31 307 0.9 2.6 0.00 0.00 0.00 55 1019.4
20260506040502 31 307 0.9 1.7 0.00 0.00 0.00 55 1019.6
20260506040001 31 307 0.9 2.6 0.00 0.00 0.00 54 1019.6
20260506035501 31 307 0.9 2.6 0.00 0.00 0.00 53 1019.6
20260506035100 32 307 0.9 1.7 0.00 0.00 0.00 53 1019.6
20260506034559 32 307 0.9 2.6 0.00 0.00 0.00 53 1019.6
20260506034059 32 307 1.7 2.6 0.00 0.00 0.00 52 1019.5
20260506033101 33 307 1.7 2.6 0.00 0.00 0.00 51 1019.6
20260506032556 33 307 0.9 2.6 0.00 0.00 0.00 51 1019.6
20260506032055 33 307 0.9 2.6 0.00 0.00 0.00 50 1019.4
20260506031556 33 307 0.9 2.6 0.00 0.00 0.00 49 1019.4
20260506031054 34 307 1.7 2.6 0.00 0.00 0.00 48 1019.3
20260506030552 35 308 0.0 2.6 0.00 0.00 0.00 47 1019.3
20260506030051 35 309 0.0 0.0 0.00 0.00 0.00 47 1019.3
20260506025551 36 309 0.0 0.0 0.00 0.00 0.00 47 1019.1
20260506025053 36 309 0.0 0.9 0.00 0.00 0.00 46 1019.2
20260506024549 37 309 0.0 2.6 0.00 0.00 0.00 46 1019.2
20260506024151 37 309 0.0 2.6 0.00 0.00 0.00 45 1019.1
20260506023104 38 309 0.0 0.0 0.00 0.00 0.00 44 1019.1
20260506022550 38 309 0.0 3.5 0.00 0.00 0.00 44 1019.0
20260506022050 38 309 0.0 3.5 0.00 0.00 0.00 43 1018.9
20260506021609 39 340 0.0 2.6 0.00 0.00 0.00 43 1019.0
20260506021051 39 340 0.0 1.7 0.00 0.00 0.00 42 1018.9
20260506020549 40 340 0.0 1.7 0.00 0.00 0.00 42 1019.0
20260506020049 40 340 0.0 1.7 0.00 0.00 0.00 41 1018.8
20260506015549 41 351 0.0 0.9 0.00 0.00 0.00 40 1018.8
20260506015051 41 351 0.0 3.5 0.00 0.00 0.00 40 1018.7
20260506014547 42 355 0.0 3.5 0.00 0.00 0.00 39 1018.7
20260506014050 43 349 1.7 4.3 0.00 0.00 0.00 39 1018.7
20260506013057 44 337 1.7 7.0 0.00 0.00 0.00 38 1018.6
20260506012546 44 319 0.9 7.0 0.00 0.00 0.00 38 1018.6
20260506012047 44 355 2.6 7.0 0.00 0.00 0.00 38 1018.6
20260506011559 44 355 3.5 7.8 0.00 0.00 0.00 38 1018.6
20260506011044 44 9 3.5 9.6 0.00 0.00 0.00 37 1018.5
20260506010545 45 5 3.5 9.6 0.00 0.00 0.00 36 1018.4
20260506010048 45 348 2.6 7.0 0.00 0.00 0.00 36 1018.3
20260506005548 45 26 2.6 7.0 0.00 0.00 0.00 36 1018.3
20260506005044 45 24 1.7 5.2 0.00 0.00 0.00 37 1018.3
20260506004544 45 290 1.7 8.7 0.00 0.00 0.00 37 1018.4
20260506004043 45 304 4.3 8.7 0.00 0.00 0.00 37 1018.3
20260506003043 45 360 3.5 7.8 0.00 0.00 0.00 36 1018.2
20260506002542 45 360 4.3 9.6 0.00 0.00 0.00 36 1018.2
20260506002042 45 12 3.5 9.6 0.00 0.00 0.00 36 1018.1
20260506001547 45 312 2.6 8.7 0.00 0.00 0.00 36 1018.2
20260506001042 45 307 2.6 8.7 0.00 0.00 0.00 35 1018.3
20260506000544 45 13 2.6 9.6 0.00 0.00 0.00 35 1018.2
20260506000047 45 300 4.3 10.4 0.00 0.00 0.00 35 1018.1
20260505235544 45 317 2.6 10.4 0.00 0.00 0.00 35 1018.1
20260505235042 46 302 2.6 7.0 0.00 0.00 0.00 36 1018.1
20260505234541 46 298 0.9 7.8 0.00 0.00 0.00 35 1018.1
20260505234041 46 355 3.5 9.6 0.00 0.00 0.00 35 1018.0
20260505233145 46 296 3.5 8.7 0.00 0.00 0.00 35 1017.9
20260505232545 46 302 1.7 8.7 0.00 0.00 0.00 35 1017.8
20260505232048 46 360 1.7 7.8 0.00 0.00 0.00 36 1018.0
20260505231603 46 292 3.5 7.8 0.00 0.00 0.00 35 1017.7
20260505231044 46 360 2.6 7.8 0.00 0.00 0.00 36 1018.0
20260505230544 46 30 2.6 13.0 0.00 0.00 0.00 36 1017.8
20260505230045 46 296 2.6 16.5 0.00 0.00 0.00 35 1017.9
20260505225545 46 324 1.7 8.7 0.00 0.00 0.00 36 1017.8
20260505225045 46 34 4.3 8.7 0.00 0.00 0.00 35 1017.8
20260505224545 46 26 2.6 8.7 0.00 0.00 0.00 35 1017.9
20260505224044 46 334 5.2 11.3 0.00 0.00 0.00 35 1017.8
20260505223037 46 317 3.5 9.6 0.00 0.00 0.00 36 1017.8
20260505222537 46 303 4.3 9.6 0.00 0.00 0.00 36 1017.9
20260505222037 46 323 3.5 11.3 0.00 0.00 0.00 36 1017.8
20260505221537 46 282 4.3 11.3 0.00 0.00 0.00 35 1017.9
20260505221036 46 292 2.6 12.2 0.00 0.00 0.00 35 1017.9
20260505220536 46 12 2.6 12.2 0.00 0.00 0.00 37 1017.8
20260505220036 46 300 3.5 10.4 0.00 0.00 0.00 36 1017.8
20260505215536 46 309 2.6 10.4 0.00 0.00 0.00 35 1017.7
20260505215036 47 308 3.5 7.8 0.00 0.00 0.00 35 1017.9
20260505214549 47 306 2.6 9.6 0.00 0.00 0.00 35 1017.7
20260505214036 46 308 4.3 12.2 0.00 0.00 0.00 36 1017.8
20260505213040 47 323 3.5 8.7 0.00 0.00 0.00 36 1017.9
20260505212537 46 321 3.5 11.3 0.00 0.00 0.00 36 1017.9
20260505212037 46 324 4.3 12.2 0.00 0.00 0.00 35 1018.0
20260505211537 46 36 6.1 12.2 0.00 0.00 0.00 35 1017.9
20260505211037 46 312 4.3 11.3 0.00 0.00 0.00 35 1017.9
20260505210536 47 316 2.6 8.7 0.00 0.00 0.00 35 1017.9
20260505210036 46 346 2.6 9.6 0.00 0.00 0.00 36 1017.9
20260505205638 47 301 4.3 9.6 0.00 0.00 0.00 34 1018.1
20260505205035 47 5 3.5 13.0 0.00 0.00 0.00 36 1018.1
20260505204535 46 315 4.3 13.0 0.00 0.00 0.00 36 1018.2
20260505204035 45 11 3.5 9.6 0.00 0.00 0.00 37 1018.0
20260505203052 46 297 7.8 12.2 0.00 0.00 0.00 35 1018.1
20260505202534 46 329 4.3 11.3 0.00 0.00 0.00 36 1018.1
20260505202035 46 308 4.3 9.6 0.00 0.00 0.00 35 1018.1
20260505201541 47 319 4.3 12.2 0.00 0.00 0.00 34 1018.2
20260505201033 47 5 4.3 12.2 0.00 0.00 0.00 36 1018.1
20260505200534 47 306 6.1 12.2 0.00 0.00 0.00 35 1018.2
20260505200034 46 360 3.5 12.2 0.00 0.00 0.00 38 1018.2
20260505195535 45 298 4.3 15.6 0.00 0.00 0.00 36 1018.2
20260505195032 46 303 4.3 15.6 0.00 0.00 0.00 35 1018.2
20260505194532 45 279 4.3 12.2 0.00 0.00 0.00 36 1018.2
20260505194033 46 321 4.3 12.2 0.00 0.00 0.00 36 1018.3